Time,TemperatureF,DewpointF,PressureIn,WindDirection,WindDirectionDegrees,WindSpeedMPH,WindSpeedGustMPH,Humidity,HourlyPrecipIn,Conditions,Clouds,dailyrainin,SoftwareType,DateUTC
2013-10-17 00:14:00,53.0,51.0,29.83,North,350,0.0,-999.0,93,-99.99,,,-99.99,,2013-10-17 04:14:00,
2013-10-17 00:24:00,53.0,51.0,29.82,North,350,0.0,-999.0,93,-99.99,,,-99.99,,2013-10-17 04:24:00,
2013-10-17 00:43:00,52.0,50.0,29.82,North,350,0.0,-999.0,93,-99.99,,,-99.99,,2013-10-17 04:43:00,
2013-10-17 00:54:00,52.0,50.0,29.82,North,350,0.0,-999.0,93,-99.99,,,-99.99,,2013-10-17 04:54:00,
2013-10-17 01:13:00,51.0,49.0,29.81,North,349,0.0,-999.0,94,-99.99,,,-99.99,,2013-10-17 05:13:00,
2013-10-17 01:23:00,51.0,49.0,29.82,North,349,0.0,-999.0,94,-99.99,,,-99.99,,2013-10-17 05:23:00,
2013-10-17 01:42:00,51.0,50.0,29.82,North,349,0.0,-999.0,95,-99.99,,,-99.99,,2013-10-17 05:42:00,
2013-10-17 01:52:00,51.0,50.0,29.81,North,350,0.0,-999.0,95,-99.99,,,-99.99,,2013-10-17 05:52:00,
2013-10-17 02:13:00,52.0,51.0,29.82,North,350,0.0,-999.0,95,-99.99,,,-99.99,,2013-10-17 06:13:00,
2013-10-17 02:22:00,53.0,52.0,29.81,WSW,243,3.0,-999.0,97,-99.99,,,-99.99,,2013-10-17 06:22:00,
2013-10-17 02:42:00,55.0,54.0,29.81,WSW,254,4.0,-999.0,96,-99.99,,,-99.99,,2013-10-17 06:42:00,
2013-10-17 02:52:00,58.0,55.0,29.80,WSW,243,4.0,-999.0,89,-99.99,,,-99.99,,2013-10-17 06:52:00,
2013-10-17 03:11:00,60.0,55.0,29.80,SW,215,2.0,-999.0,84,-99.99,,,-99.99,,2013-10-17 07:11:00,
2013-10-17 03:22:00,60.0,55.0,29.79,SSW,211,1.0,-999.0,84,-99.99,,,-99.99,,2013-10-17 07:22:00,
2013-10-17 03:43:00,59.0,55.0,29.80,WSW,252,1.0,-999.0,87,-99.99,,,-99.99,,2013-10-17 07:43:00,
2013-10-17 03:52:00,58.0,55.0,29.79,WNW,303,0.0,-999.0,90,-99.99,,,-99.99,,2013-10-17 07:52:00,
2013-10-17 04:11:00,57.0,54.0,29.80,NW,317,0.0,-999.0,91,-99.99,,,-99.99,,2013-10-17 08:11:00,
2013-10-17 04:22:00,57.0,55.0,29.80,SSW,200,1.0,-999.0,93,-99.99,,,-99.99,,2013-10-17 08:22:00,
2013-10-17 04:42:00,57.0,55.0,29.80,South,186,0.0,-999.0,94,-99.99,,,-99.99,,2013-10-17 08:42:00,
2013-10-17 04:52:00,57.0,55.0,29.79,South,184,0.0,-999.0,94,-99.99,,,-99.99,,2013-10-17 08:52:00,
2013-10-17 05:11:00,56.0,54.0,29.80,SW,218,2.0,-999.0,94,-99.99,,,-99.99,,2013-10-17 09:11:00,
2013-10-17 05:22:00,56.0,54.0,29.80,SSW,211,1.0,-999.0,93,-99.99,,,-99.99,,2013-10-17 09:22:00,
2013-10-17 05:43:00,56.0,54.0,29.80,South,187,0.0,-999.0,93,-99.99,,,-99.99,,2013-10-17 09:43:00,
2013-10-17 05:53:00,55.0,53.0,29.80,South,187,0.0,-999.0,93,-99.99,,,-99.99,,2013-10-17 09:53:00,
2013-10-17 06:12:00,55.0,53.0,29.80,South,187,0.0,-999.0,94,-99.99,,,-99.99,,2013-10-17 10:12:00,
2013-10-17 06:23:00,55.0,53.0,29.80,South,187,0.0,-999.0,94,-99.99,,,-99.99,,2013-10-17 10:23:00,
2013-10-17 06:42:00,54.0,52.0,29.80,South,187,0.0,-999.0,94,-99.99,,,-99.99,,2013-10-17 10:42:00,
2013-10-17 06:53:00,54.0,52.0,29.81,South,187,0.0,-999.0,94,-99.99,,,-99.99,,2013-10-17 10:53:00,
2013-10-17 07:12:00,53.0,51.0,29.81,South,187,0.0,-999.0,94,-99.99,,,-99.99,,2013-10-17 11:12:00,
2013-10-17 07:22:00,53.0,51.0,29.81,South,188,0.0,-999.0,94,-99.99,,,-99.99,,2013-10-17 11:22:00,
2013-10-17 07:42:00,52.0,51.0,29.81,South,188,0.0,-999.0,95,-99.99,,,-99.99,,2013-10-17 11:42:00,
2013-10-17 07:52:00,52.0,51.0,29.82,South,187,0.0,-999.0,95,-99.99,,,-99.99,,2013-10-17 11:52:00,
2013-10-17 08:12:00,52.0,51.0,29.83,South,188,0.0,-999.0,95,-99.99,,,-99.99,,2013-10-17 12:12:00,
2013-10-17 08:22:00,52.0,51.0,29.83,South,188,0.0,-999.0,96,-99.99,,,-99.99,,2013-10-17 12:22:00,
2013-10-17 08:42:00,53.0,52.0,29.83,South,187,0.0,-999.0,96,-99.99,,,-99.99,,2013-10-17 12:42:00,
2013-10-17 08:52:00,54.0,53.0,29.83,South,188,0.0,-999.0,97,-99.99,,,-99.99,,2013-10-17 12:52:00,
2013-10-17 09:11:00,55.0,54.0,29.83,West,259,1.0,-999.0,97,-99.99,,,-99.99,,2013-10-17 13:11:00,
2013-10-17 09:22:00,56.0,55.0,29.83,WNW,292,2.0,-999.0,96,-99.99,,,-99.99,,2013-10-17 13:22:00,
2013-10-17 09:42:00,58.0,56.0,29.83,WNW,295,1.0,-999.0,93,-99.99,,,-99.99,,2013-10-17 13:42:00,
2013-10-17 09:52:00,59.0,54.0,29.83,WSW,244,2.0,-999.0,82,-99.99,,,-99.99,,2013-10-17 13:52:00,
2013-10-17 10:11:00,60.0,52.0,29.83,West,273,3.0,-999.0,76,-99.99,,,-99.99,,2013-10-17 14:11:00,
2013-10-17 10:22:00,60.0,52.0,29.83,West,276,2.0,-999.0,75,-99.99,,,-99.99,,2013-10-17 14:22:00,
2013-10-17 10:42:00,60.0,52.0,29.83,NNE,17,2.0,-999.0,75,-99.99,,,-99.99,,2013-10-17 14:42:00,
2013-10-17 10:52:00,61.0,54.0,29.83,NNW,329,1.0,-999.0,77,-99.99,,,-99.99,,2013-10-17 14:52:00,
2013-10-17 11:11:00,61.0,54.0,29.83,West,267,1.0,-999.0,77,-99.99,,,-99.99,,2013-10-17 15:11:00,
2013-10-17 11:22:00,61.0,53.0,29.83,North,360,2.0,-999.0,76,-99.99,,,-99.99,,2013-10-17 15:22:00,
2013-10-17 11:43:00,61.0,52.0,29.83,NW,323,3.0,-999.0,72,-99.99,,,-99.99,,2013-10-17 15:43:00,
2013-10-17 11:54:00,62.0,52.0,29.83,North,360,1.0,-999.0,70,-99.99,,,-99.99,,2013-10-17 15:54:00,
2013-10-17 12:12:00,61.0,51.0,29.83,NNW,334,2.0,-999.0,69,-99.99,,,-99.99,,2013-10-17 16:12:00,
2013-10-17 12:23:00,61.0,52.0,29.83,NW,323,2.0,-999.0,71,-99.99,,,-99.99,,2013-10-17 16:23:00,
2013-10-17 12:42:00,62.0,52.0,29.82,North,355,3.0,-999.0,69,-99.99,,,-99.99,,2013-10-17 16:42:00,
2013-10-17 12:54:00,62.0,51.0,29.81,NNW,331,2.0,-999.0,67,-99.99,,,-99.99,,2013-10-17 16:54:00,
2013-10-17 13:12:00,62.0,51.0,29.81,NNW,338,1.0,-999.0,68,-99.99,,,-99.99,,2013-10-17 17:12:00,
2013-10-17 13:22:00,63.0,51.0,29.81,NW,315,2.0,-999.0,65,-99.99,,,-99.99,,2013-10-17 17:22:00,
2013-10-17 13:42:00,63.0,50.0,29.80,WSW,240,1.0,-999.0,63,-99.99,,,-99.99,,2013-10-17 17:42:00,
2013-10-17 13:53:00,64.0,51.0,29.80,SW,232,1.0,-999.0,62,-99.99,,,-99.99,,2013-10-17 17:53:00,
2013-10-17 14:12:00,63.0,50.0,29.80,WSW,252,4.0,-999.0,63,-99.99,,,-99.99,,2013-10-17 18:12:00,
2013-10-17 14:22:00,64.0,51.0,29.79,SW,217,4.0,-999.0,62,-99.99,,,-99.99,,2013-10-17 18:22:00,
2013-10-17 14:42:00,65.0,51.0,29.79,SSE,168,4.0,-999.0,61,-99.99,,,-99.99,,2013-10-17 18:42:00,
2013-10-17 14:52:00,64.0,50.0,29.79,SSW,194,2.0,-999.0,61,-99.99,,,-99.99,,2013-10-17 18:52:00,
2013-10-17 15:11:00,64.0,50.0,29.79,SSW,207,3.0,-999.0,61,-99.99,,,-99.99,,2013-10-17 19:11:00,
2013-10-17 15:22:00,64.0,50.0,29.79,NW,306,1.0,-999.0,61,-99.99,,,-99.99,,2013-10-17 19:22:00,
2013-10-17 15:42:00,64.0,49.0,29.79,NW,306,0.0,-999.0,59,-99.99,,,-99.99,,2013-10-17 19:42:00,
2013-10-17 15:53:00,64.0,50.0,29.78,West,261,0.0,-999.0,61,-99.99,,,-99.99,,2013-10-17 19:53:00,
2013-10-17 16:11:00,65.0,50.0,29.78,NW,304,1.0,-999.0,59,-99.99,,,-99.99,,2013-10-17 20:11:00,
2013-10-17 16:22:00,64.0,49.0,29.78,WSW,241,1.0,-999.0,59,-99.99,,,-99.99,,2013-10-17 20:22:00,
2013-10-17 16:42:00,64.0,52.0,29.78,South,184,0.0,-999.0,64,-99.99,,,-99.99,,2013-10-17 20:42:00,
2013-10-17 16:52:00,64.0,49.0,29.78,South,184,0.0,-999.0,59,-99.99,,,-99.99,,2013-10-17 20:52:00,
2013-10-17 17:11:00,65.0,54.0,29.78,NNW,336,0.0,-999.0,68,-99.99,,,-99.99,,2013-10-17 21:11:00,
2013-10-17 17:22:00,64.0,53.0,29.78,NNW,336,0.0,-999.0,68,-99.99,,,-99.99,,2013-10-17 21:22:00,
2013-10-17 17:44:00,63.0,53.0,29.77,NNW,336,0.0,-999.0,71,-99.99,,,-99.99,,2013-10-17 21:44:00,
2013-10-17 17:54:00,62.0,54.0,29.77,NNW,336,0.0,-999.0,74,-99.99,,,-99.99,,2013-10-17 21:54:00,
2013-10-17 18:14:00,61.0,54.0,29.77,NNW,336,0.0,-999.0,77,-99.99,,,-99.99,,2013-10-17 22:14:00,
2013-10-17 18:24:00,60.0,53.0,29.78,NNW,336,0.0,-999.0,79,-99.99,,,-99.99,,2013-10-17 22:24:00,
2013-10-17 18:43:00,59.0,53.0,29.78,NNW,336,0.0,-999.0,81,-99.99,,,-99.99,,2013-10-17 22:43:00,
2013-10-17 18:53:00,58.0,53.0,29.77,NNW,336,0.0,-999.0,82,-99.99,,,-99.99,,2013-10-17 22:53:00,
2013-10-17 19:13:00,57.0,52.0,29.78,NNW,336,0.0,-999.0,84,-99.99,,,-99.99,,2013-10-17 23:13:00,
2013-10-17 19:22:00,56.0,52.0,29.77,NNW,336,0.0,-999.0,85,-99.99,,,-99.99,,2013-10-17 23:22:00,
2013-10-17 19:43:00,54.0,50.0,29.77,NNW,336,1.0,-999.0,86,-99.99,,,-99.99,,2013-10-17 23:43:00,
2013-10-17 19:53:00,53.0,50.0,29.77,NNW,336,0.0,-999.0,88,-99.99,,,-99.99,,2013-10-17 23:53:00,
2013-10-17 20:12:00,52.0,49.0,29.76,NNW,336,0.0,-999.0,89,-99.99,,,-99.99,,2013-10-18 00:12:00,
2013-10-17 20:22:00,51.0,48.0,29.75,NNW,336,0.0,-999.0,89,-99.99,,,-99.99,,2013-10-18 00:22:00,
2013-10-17 20:42:00,50.0,47.0,29.75,NNW,336,0.0,-999.0,90,-99.99,,,-99.99,,2013-10-18 00:42:00,
2013-10-17 20:53:00,49.0,46.0,29.75,NNW,336,1.0,-999.0,91,-99.99,,,-99.99,,2013-10-18 00:53:00,
2013-10-17 21:12:00,48.0,45.0,29.76,NNW,336,0.0,-999.0,91,-99.99,,,-99.99,,2013-10-18 01:12:00,
2013-10-17 21:22:00,48.0,46.0,29.75,NNW,336,0.0,-999.0,92,-99.99,,,-99.99,,2013-10-18 01:22:00,
2013-10-17 21:42:00,48.0,46.0,29.75,NNW,336,0.0,-999.0,93,-99.99,,,-99.99,,2013-10-18 01:42:00,
2013-10-17 21:53:00,48.0,46.0,29.74,NNW,336,0.0,-999.0,93,-99.99,,,-99.99,,2013-10-18 01:53:00,
2013-10-17 22:11:00,48.0,46.0,29.73,NNW,336,0.0,-999.0,94,-99.99,,,-99.99,,2013-10-18 02:11:00,
2013-10-17 22:22:00,48.0,46.0,29.73,NNW,336,0.0,-999.0,94,-99.99,,,-99.99,,2013-10-18 02:22:00,
2013-10-17 22:42:00,48.0,46.0,29.72,NNW,336,0.0,-999.0,94,-99.99,,,-99.99,,2013-10-18 02:42:00,
2013-10-17 22:52:00,48.0,47.0,29.72,NNW,336,0.0,-999.0,95,-99.99,,,-99.99,,2013-10-18 02:52:00,
2013-10-17 23:11:00,48.0,47.0,29.72,NNW,336,0.0,-999.0,95,-99.99,,,-99.99,,2013-10-18 03:11:00,
2013-10-17 23:22:00,49.0,48.0,29.72,NNW,336,0.0,-999.0,95,-99.99,,,-99.99,,2013-10-18 03:22:00,
2013-10-17 23:55:00,49.0,48.0,29.72,South,178,1.0,-999.0,95,-99.99,,,-99.99,,2013-10-18 03:55:00,